{"data":{"norad_id":81605,"intl_designator":"","name":"UNKNOWN","alt_names":[],"object_type":"UNKNOWN","status":"UNKNOWN","operator":null,"country":null,"launch_date":null,"launch_site_code":null,"launch_vehicle":null,"mission":null,"orbit_class":"UNKNOWN","rcs_meters":null,"size_class":null,"mass_kg":null,"dimensions":null,"purposes":[],"wikipedia_slug":null,"has_3d_model":false,"image_url":null,"decayed_at":null,"tle_current":{"epoch":"2026-05-23T22:20:55.688640Z","epoch_age_seconds":164076,"freshness":"FRESH","line1":"1 81605U          26143.93120010  .00001183  00000+0  52875-2 0  9993","line2":"2 81605  56.4345 114.1169 0146915   0.5911 359.5164 12.81478827206991","mean_motion":12.81478827,"eccentricity":0.0146915,"inclination_deg":56.4345,"raan_deg":114.1169,"arg_perigee_deg":0.5911,"mean_anomaly_deg":359.5164,"bstar":0.0052875,"rev_number":20699,"period_min":112.37017496193,"perigee_km":1222.2046306713,"apogee_km":1448.8553072198,"semimajor_km":7713.6669689455,"source":"CELESTRAK","updated_at":"2026-05-25T13:38:11.078738Z"}}}